Temp
-20 -19 -20 -20 -20 -19 -19 -19 -18 -19 -19 -19 -19 -19 -19 -18 -18 -18 -17 -17 -17 -16 -16 -16 -16 -16 -16 -16 -16 -16 -15 -15 -15 -15 -15 -15 -15 -15 -15 -15 -15 -15 -15 -15 -16 -15 -15 -16 -16 -16 -16 -16 -16 -17
-19 -20 -19 -19 -19 -19 -18 -19 -19 -19 -20 -19 -19 -18 -19 -18 -18 -18 -17 -17 -16 -16 -16 -16 -16 -16 -16 -16 -16 -16 -15 -15 -15 -15 -15 -15 -15 -15 -15 -15 -15 -15 -15 -15 -15 -16 -16 -16 -16 -16 -16 -17 -17 -17
-19 -19 -19 -19 -19 -18 -19 -19 -19 -20 -19 -19 -19 -18 -18 -18 -18 -18 -18 -17 -17 -16 -16 -16 -16 -16 -16 -16 -16 -16 -15 -16 -16 -15 -15 -15 -15 -15 -15 -15 -15 -15 -15 -15 -16 -17 -16 -16 -16 -16 -17 -17 -17 -18
-19 -19 -19 -19 -18 -19 -19 -19 -19 -20 -20 -19 -19 -19 -19 -18 -18 -18 -18 -17 -17 -17 -16 -16 -16 -16 -16 -16 -16 -16 -16 -16 -15 -15 -15 -15 -15 -15 -15 -15 -15 -16 -16 -16 -16 -16 -16 -17 -17 -17 -17 -18 -18 -18
-19 -19 -18 -18 -19 -19 -19 -19 -19 -19 -19 -19 -19 -19 -19 -19 -18 -18 -18 -17 -18 -17 -17 -17 -16 -16 -16 -16 -16 -16 -16 -16 -15 -15 -15 -15 -15 -15 -15 -15 -16 -17 -17 -16 -16 -17 -17 -17 -18 -18 -18 -18 -18 -18
-19 -19 -18 -19 -19 -19 -19 -19 -19 -19 -19 -19 -19 -19 -19 -18 -18 -18 -18 -18 -18 -17 -17 -17 -17 -17 -16 -16 -16 -16 -16 -16 -16 -16 -15 -15 -16 -16 -15 -16 -18 -18 -17 -18 -17 -17 -18 -18 -18 -18 -19 -19 -19 -19
-19 -19 -19 -19 -19 -19 -19 -19 -19 -19 -19 -19 -20 -20 -19 -19 -19 -19 -19 -19 -18 -18 -18 -18 -17 -17 -17 -17 -17 -17 -16 -16 -16 -16 -16 -16 -17 -17 -16 -17 -18 -18 -18 -18 -18 -18 -18 -18 -18 -19 -19 -19 -19 -19
-19 -20 -19 -20 -20 -20 -20 -20 -20 -19 -19 -19 -20 -20 -20 -20 -20 -20 -19 -19 -19 -18 -18 -18 -18 -18 -18 -18 -17 -17 -17 -17 -17 -17 -17 -17 -17 -17 -17 -18 -18 -18 -19 -19 -19 -19 -19 -19 -19 -19 -19 -19 -19 -19
-20 -20 -19 -20 -19 -20 -20 -20 -19 -19 -20 -20 -20 -20 -20 -20 -20 -20 -20 -20 -19 -19 -19 -19 -19 -19 -19 -19 -19 -18 -18 -18 -18 -17 -18 -18 -17 -17 -18 -18 -18 -18 -19 -19 -19 -20 -20 -19 -19 -19 -19 -20 -20 -20
-20 -21 -20 -20 -20 -20 -20 -20 -20 -20 -20 -20 -20 -20 -20 -20 -20 -20 -20 -19 -19 -19 -19 -19 -20 -20 -20 -19 -19 -19 -19 -18 -18 -18 -18 -18 -18 -18 -19 -19 -19 -19 -20 -20 -20 -20 -20 -20 -20 -20 -20 -20 -21 -21
-20 -20 -20 -20 -20 -20 -20 -20 -19 -20 -20 -20 -20 -20 -20 -20 -20 -20 -20 -20 -20 -20 -20 -20 -20 -20 -20 -20 -20 -19 -19 -18 -18 -18 -18 -18 -18 -19 -19 -19 -19 -20 -20 -20 -20 -20 -20 -20 -20 -20 -20 -21 -21 -22
-20 -21 -20 -21 -20 -20 -20 -20 -20 -20 -20 -20 -20 -20 -20 -20 -20 -20 -20 -20 -20 -20 -20 -20 -20 -20 -20 -20 -19 -19 -19 -19 -18 -19 -19 -19 -19 -20 -20 -20 -20 -20 -20 -20 -20 -20 -20 -21 -21 -21 -21 -21 -22 -23
-21 -20 -20 -21 -21 -20 -20 -20 -20 -20 -20 -20 -20 -20 -20 -20 -20 -20 -20 -20 -20 -20 -20 -20 -20 -20 -19 -20 -19 -19 -19 -19 -19 -19 -19 -20 -20 -20 -20 -20 -20 -20 -20 -20 -20 -20 -20 -21 -22 -22 -23 -24 -25 -25
-21 -21 -21 -21 -21 -20 -20 -20 -20 -20 -20 -20 -20 -20 -20 -20 -20 -20 -20 -20 -20 -20 -20 -20 -20 -20 -20 -20 -20 -20 -20 -20 -20 -20 -20 -20 -20 -20 -20 -20 -20 -20 -20 -21 -21 -22 -22 -23 -24 -24 -24 -25 -25 -26
-21 -21 -21 -21 -21 -21 -21 -21 -21 -21 -21 -21 -21 -20 -20 -20 -20 -20 -20 -21 -21 -21 -21 -21 -21 -21 -21 -20 -20 -20 -20 -20 -20 -20 -20 -20 -21 -21 -21 -21 -22 -22 -23 -23 -23 -23 -24 -25 -25 -26 -27 -27 -27 -28
-21 -21 -21 -21 -21 -21 -21 -21 -21 -21 -21 -21 -21 -20 -20 -20 -20 -20 -21 -21 -21 -21 -21 -21 -21 -21 -21 -21 -21 -21 -21 -21 -21 -21 -21 -21 -22 -22 -23 -23 -23 -23 -24 -25 -26 -26 -26 -27 -27 -27 -28 -28 -29 -29
-21 -21 -21 -21 -21 -21 -21 -21 -21 -21 -21 -21 -21 -21 -20 -20 -20 -20 -20 -20 -21 -21 -21 -21 -21 -21 -21 -21 -21 -22 -22 -22 -22 -22 -23 -23 -23 -24 -24 -24 -25 -25 -26 -26 -26 -26 -26 -28 -28 -29 -29 -29 -29 -29
-21 -21 -21 -21 -21 -21 -21 -21 -21 -21 -21 -21 -21 -21 -21 -20 -21 -21 -21 -21 -21 -21 -22 -22 -22 -22 -22 -22 -23 -23 -23 -23 -23 -24 -24 -24 -24 -24 -25 -25 -25 -26 -26 -27 -28 -28 -29 -29 -29 -29 -30 -30 -29 -30
-24 -23 -22 -22 -22 -22 -22 -22 -22 -22 -22 -21 -22 -22 -22 -21 -21 -22 -22 -22 -22 -22 -22 -22 -23 -23 -23 -24 -24 -24 -24 -24 -24 -24 -24 -25 -25 -25 -25 -26 -27 -27 -28 -29 -29 -29 -29 -30 -30 -30 -30 -30 -30 -30
-26 -26 -26 -25 -25 -24 -24 -24 -23 -23 -23 -23 -23 -23 -22 -22 -22 -23 -23 -23 -23 -23 -24 -24 -24 -24 -24 -25 -25 -25 -25 -25 -25 -25 -25 -25 -26 -26 -27 -28 -28 -29 -29 -29 -29 -30 -30 -30 -30 -30 -30 -30 -30 -31
-27 -26 -26 -26 -26 -26 -25 -25 -25 -25 -25 -25 -24 -24 -24 -24 -24 -24 -24 -25 -25 -25 -25 -25 -25 -25 -25 -25 -25 -25 -25 -25 -25 -25 -26 -26 -27 -28 -29 -29 -30 -30 -30 -30 -30 -30 -30 -30 -30 -30 -30 -30 -31 -31
-26 -26 -26 -26 -26 -26 -26 -26 -26 -25 -25 -25 -25 -25 -25 -25 -25 -25 -25 -25 -25 -25 -25 -25 -25 -25 -25 -25 -25 -25 -26 -26 -26 -26 -27 -27 -28 -29 -30 -30 -30 -30 -30 -30 -30 -30 -30 -30 -30 -30 -30 -31 -31 -32
-27 -27 -27 -26 -26 -26 -26 -26 -26 -26 -26 -26 -26 -25 -25 -25 -25 -25 -25 -25 -25 -25 -25 -25 -26 -26 -26 -26 -26 -26 -27 -27 -27 -28 -28 -29 -30 -30 -30 -30 -30 -30 -30 -30 -30 -30 -30 -30 -30 -31 -31 -31 -32 -32
-27 -27 -27 -26 -26 -26 -26 -26 -26 -26 -26 -26 -26 -26 -26 -26 -26 -26 -26 -26 -26 -26 -26 -26 -26 -26 -27 -27 -27 -28 -28 -28 -29 -30 -30 -30 -30 -30 -30 -30 -30 -30 -31 -31 -31 -30 -31 -31 -31 -31 -32 -32 -33 -33
-27 -27 -27 -27 -26 -26 -26 -26 -26 -26 -26 -26 -26 -26 -26 -26 -26 -26 -26 -26 -26 -26 -26 -27 -27 -28 -28 -28 -29 -29 -30 -30 -30 -31 -31 -31 -31 -30 -31 -31 -31 -31 -31 -31 -31 -31 -31 -32 -32 -32 -33 -33 -33 -33
-27 -27 -27 -27 -27 -27 -26 -26 -26 -26 -26 -26 -26 -26 -26 -26 -26 -26 -26 -27 -27 -27 -28 -29 -29 -30 -30 -31 -31 -31 -31 -31 -31 -31 -31 -31 -31 -31 -31 -31 -31 -31 -31 -31 -31 -32 -32 -33 -33 -33 -34 -34 -34 -34
-28 -28 -28 -28 -29 -29 -29 -29 -29 -28 -28 -28 -29 -29 -29 -29 -29 -30 -30 -30 -30 -31 -31 -32 -32 -32 -32 -31 -31 -31 -31 -31 -31 -31 -31 -31 -31 -31 -31 -31 -31 -32 -32 -32 -32 -33 -33 -33 -34 -33 -34 -34 -34 -35
-31 -31 -31 -31 -31 -31 -31 -31 -31 -32 -32 -32 -32 -32 -32 -32 -32 -32 -32 -32 -32 -32 -32 -32 -32 -32 -32 -32 -31 -31 -32 -32 -32 -32 -32 -32 -32 -32 -32 -32 -32 -33 -33 -33 -33 -33 -34 -33 -33 -34 -34 -35 -35 -35
-31 -31 -31 -31 -31 -31 -31 -31 -31 -32 -32 -32 -32 -32 -32 -32 -32 -32 -32 -32 -32 -32 -32 -32 -32 -32 -32 -32 -32 -32 -32 -32 -32 -32 -32 -32 -32 -33 -33 -33 -33 -33 -33 -34 -34 -34 -34 -34 -34 -35 -35 -36 -36 -36
-31 -31 -31 -31 -31 -31 -32 -32 -32 -32 -32 -32 -32 -32 -32 -32 -32 -32 -32 -32 -32 -32 -32 -32 -32 -32 -32 -32 -32 -33 -33 -33 -33 -33 -33 -33 -33 -33 -33 -33 -34 -34 -34 -34 -34 -34 -35 -35 -35 -36 -36 -36 -36 -36
-32 -32 -32 -32 -32 -32 -32 -32 -32 -32 -32 -32 -32 -32 -32 -32 -32 -33 -33 -32 -32 -32 -33 -33 -33 -33 -34 -34 -34 -34 -34 -34 -34 -33 -33 -34 -34 -34 -34 -34 -34 -34 -34 -35 -35 -36 -36 -36 -36 -36 -36 -36 -36 -36
-32 -32 -32 -32 -33 -33 -33 -33 -33 -33 -33 -33 -33 -33 -33 -33 -33 -33 -33 -33 -33 -33 -34 -34 -34 -34 -34 -34 -34 -34 -34 -34 -34 -34 -34 -35 -35 -35 -34 -34 -35 -35 -36 -36 -36 -36 -36 -37 -37 -37 -37 -37 -37 -37
-33 -33 -33 -33 -33 -33 -33 -33 -33 -33 -33 -33 -33 -33 -34 -34 -34 -34 -34 -34 -34 -34 -34 -34 -34 -34 -34 -34 -34 -34 -34 -35 -35 -35 -35 -35 -35 -35 -35 -36 -36 -36 -37 -37 -37 -37 -37 -37 -37 -37 -37 -37 -37 -37
Height
5408 5423 5437 5453 5469 5484 5499 5512 5526 5538 5549 5559 5569 5579 5587 5597 5606 5615 5627 5637 5647 5656 5664 5672 5679 5686 5692 5697 5701 5706 5709 5711 5713 5715 5717 5718 5719 5720 5721 5721 5721 5720 5719 5718 5716 5714 5712 5709 5707 5704 5701 5696 5693 5690
5428 5443 5456 5469 5481 5494 5507 5519 5529 5539 5551 5562 5570 5579 5588 5596 5605 5615 5625 5636 5644 5653 5662 5669 5675 5681 5686 5690 5696 5699 5702 5706 5708 5710 5711 5712 5713 5714 5714 5714 5713 5713 5712 5709 5709 5707 5702 5697 5694 5690 5687 5685 5682 5678
5449 5461 5471 5481 5493 5505 5515 5525 5535 5545 5554 5563 5571 5579 5588 5596 5605 5614 5625 5633 5641 5650 5657 5664 5671 5676 5680 5685 5690 5694 5697 5700 5701 5703 5704 5705 5705 5706 5706 5705 5703 5703 5700 5699 5697 5695 5690 5685 5682 5680 5676 5674 5670 5667
5464 5474 5484 5494 5502 5512 5522 5531 5539 5548 5557 5565 5573 5580 5588 5596 5605 5616 5623 5629 5638 5646 5653 5660 5665 5670 5675 5679 5684 5688 5691 5692 5694 5695 5696 5697 5697 5697 5696 5694 5693 5694 5689 5686 5684 5682 5678 5676 5673 5670 5666 5663 5660 5656
5477 5486 5494 5503 5511 5519 5528 5536 5544 5552 5559 5567 5573 5580 5589 5598 5606 5616 5620 5626 5635 5643 5649 5655 5660 5665 5669 5673 5676 5680 5683 5685 5685 5687 5687 5688 5688 5687 5685 5684 5684 5682 5677 5673 5672 5671 5668 5666 5663 5660 5657 5653 5649 5645
5488 5495 5502 5510 5517 5525 5533 5541 5548 5555 5562 5568 5575 5583 5590 5597 5603 5611 5617 5625 5631 5638 5644 5649 5655 5659 5663 5666 5669 5671 5674 5676 5677 5677 5677 5678 5678 5677 5673 5673 5674 5670 5668 5665 5662 5659 5656 5653 5651 5648 5644 5641 5637 5633
5497 5503 5509 5516 5523 5529 5537 5545 5554 5559 5564 5569 5577 5584 5592 5599 5605 5611 5618 5624 5629 5634 5640 5644 5648 5652 5656 5659 5661 5664 5665 5666 5667 5667 5668 5668 5668 5665 5664 5662 5663 5661 5658 5654 5651 5648 5646 5643 5640 5636 5633 5629 5625 5620
5503 5509 5515 5522 5528 5534 5541 5548 5555 5561 5567 5573 5579 5586 5593 5599 5605 5610 5615 5620 5625 5629 5633 5638 5642 5647 5649 5651 5653 5655 5656 5657 5658 5658 5659 5658 5657 5655 5654 5655 5652 5650 5648 5644 5641 5638 5635 5631 5628 5625 5621 5617 5612 5607
5507 5513 5520 5526 5532 5538 5545 5551 5557 5563 5569 5575 5580 5585 5591 5597 5602 5607 5611 5615 5620 5626 5628 5633 5636 5639 5641 5644 5645 5647 5648 5648 5649 5649 5649 5649 5647 5645 5645 5644 5642 5640 5637 5634 5631 5627 5624 5620 5616 5612 5608 5604 5599 5593
5511 5517 5523 5529 5535 5541 5546 5553 5558 5564 5569 5575 5580 5585 5590 5595 5600 5605 5609 5612 5615 5618 5622 5627 5630 5633 5636 5637 5638 5640 5639 5639 5639 5641 5639 5639 5637 5636 5634 5632 5631 5629 5625 5622 5619 5616 5612 5608 5604 5600 5596 5591 5585 5579
5514 5519 5524 5529 5535 5541 5547 5553 5558 5564 5569 5575 5579 5584 5590 5594 5598 5601 5604 5607 5611 5614 5617 5621 5624 5626 5629 5630 5630 5630 5629 5630 5629 5630 5630 5628 5627 5626 5624 5622 5620 5617 5614 5611 5607 5603 5599 5595 5591 5586 5581 5576 5570 5564
5513 5518 5522 5528 5534 5538 5545 5551 5558 5563 5568 5573 5578 5582 5586 5589 5593 5594 5597 5601 5604 5609 5612 5615 5617 5618 5619 5620 5619 5620 5620 5620 5619 5620 5618 5617 5618 5616 5612 5610 5607 5604 5601 5597 5594 5591 5586 5581 5576 5571 5566 5559 5553 5546
5514 5517 5522 5526 5530 5537 5542 5548 5553 5559 5564 5570 5574 5578 5581 5584 5585 5587 5593 5598 5601 5602 5604 5606 5608 5609 5610 5611 5611 5611 5610 5609 5609 5606 5604 5606 5604 5601 5599 5598 5595 5591 5588 5584 5580 5575 5569 5563 5557 5551 5546 5541 5537 5533
5516 5519 5522 5527 5532 5536 5542 5546 5551 5555 5559 5564 5568 5572 5574 5576 5579 5584 5588 5591 5592 5592 5593 5595 5597 5599 5600 5600 5600 5600 5599 5599 5597 5597 5597 5595 5592 5588 5586 5583 5579 5575 5571 5566 5561 5557 5552 5547 5542 5537 5532 5527 5521 5516
5516 5520 5523 5527 5530 5535 5539 5543 5547 5552 5555 5559 5563 5564 5567 5572 5574 5576 5578 5580 5581 5583 5585 5586 5587 5589 5590 5590 5590 5590 5589 5587 5587 5586 5583 5581 5578 5575 5572 5567 5564 5559 5555 5551 5546 5541 5536 5531 5526 5521 5517 5511 5506 5501
5515 5519 5522 5526 5529 5533 5536 5539 5543 5547 5551 5554 5556 5558 5562 5565 5567 5569 5570 5572 5573 5574 5575 5577 5577 5578 5579 5579 5579 5579 5578 5577 5575 5572 5570 5567 5564 5561 5558 5554 5549 5545 5540 5536 5532 5528 5524 5519 5515 5509 5504 5499 5493 5488
5512 5515 5519 5522 5526 5530 5533 5537 5540 5543 5546 5548 5550 5552 5554 5557 5559 5560 5561 5562 5564 5565 5565 5566 5567 5567 5567 5567 5567 5566 5564 5563 5561 5558 5556 5553 5550 5547 5544 5541 5537 5533 5529 5524 5521 5516 5511 5506 5502 5497 5492 5486 5480 5474
5507 5510 5514 5517 5520 5524 5527 5530 5534 5536 5539 5541 5543 5545 5546 5548 5550 5551 5552 5553 5555 5555 5555 5556 5556 5555 5555 5554 5553 5552 5550 5549 5548 5546 5544 5542 5539 5535 5532 5528 5525 5520 5516 5512 5507 5503 5498 5494 5489 5484 5479 5474 5468 5461
5501 5504 5507 5511 5514 5517 5520 5523 5525 5527 5530 5532 5534 5536 5537 5539 5540 5542 5543 5543 5544 5544 5544 5544 5544 5544 5543 5542 5541 5540 5539 5538 5537 5535 5532 5530 5526 5523 5519 5515 5511 5507 5503 5499 5495 5490 5486 5481 5476 5471 5465 5459 5451 5442
5500 5502 5504 5506 5508 5511 5513 5515 5517 5519 5521 5523 5524 5526 5528 5529 5531 5531 5532 5533 5533 5533 5533 5534 5534 5534 5533 5532 5531 5530 5529 5527 5525 5523 5520 5516 5513 5509 5505 5501 5497 5494 5490 5487 5482 5477 5473 5467 5461 5455 5447 5440 5432 5423
5500 5501 5503 5504 5506 5508 5509 5510 5512 5513 5515 5516 5517 5519 5520 5521 5522 5523 5524 5524 5525 5525 5526 5525 5525 5524 5523 5522 5521 5519 5517 5515 5512 5510 5506 5503 5499 5495 5491 5488 5485 5481 5478 5473 5469 5464 5459 5452 5446 5439 5432 5423 5414 5404
5498 5499 5500 5501 5502 5504 5505 5506 5508 5509 5511 5511 5512 5513 5514 5514 5515 5516 5516 5517 5517 5516 5516 5515 5515 5514 5512 5511 5508 5506 5504 5501 5498 5495 5492 5489 5485 5482 5479 5476 5473 5469 5464 5460 5455 5449 5443 5436 5430 5423 5415 5406 5396 5386
5494 5495 5495 5496 5497 5498 5500 5500 5501 5502 5502 5503 5504 5505 5505 5505 5506 5506 5507 5507 5505 5504 5503 5503 5502 5500 5499 5497 5495 5492 5489 5486 5484 5481 5478 5476 5473 5470 5467 5463 5460 5455 5451 5445 5440 5434 5427 5420 5413 5405 5396 5387 5377 5367
5488 5488 5489 5490 5490 5490 5491 5491 5492 5493 5493 5494 5495 5495 5495 5495 5494 5494 5495 5495 5494 5492 5491 5489 5487 5485 5484 5482 5480 5477 5475 5473 5471 5468 5466 5463 5460 5457 5454 5450 5446 5441 5436 5430 5424 5417 5410 5403 5395 5386 5377 5367 5358 5349
5480 5481 5481 5480 5480 5481 5481 5480 5480 5481 5481 5481 5481 5481 5480 5480 5480 5481 5481 5480 5478 5476 5474 5473 5471 5470 5468 5467 5466 5464 5463 5461 5458 5456 5454 5451 5448 5444 5441 5436 5431 5426 5420 5414 5407 5400 5392 5383 5375 5366 5357 5349 5341 5332
5470 5470 5470 5468 5467 5467 5466 5466 5465 5465 5464 5464 5463 5462 5462 5461 5461 5461 5462 5461 5460 5459 5459 5458 5457 5456 5455 5455 5454 5453 5451 5449 5446 5444 5441 5438 5434 5430 5426 5420 5415 5410 5404 5398 5391 5383 5374 5366 5358 5350 5341 5333 5325 5318
5459 5458 5456 5455 5455 5453 5452 5450 5448 5448 5447 5446 5445 5445 5444 5444 5445 5445 5444 5444 5445 5446 5446 5446 5447 5446 5445 5444 5443 5442 5439 5437 5434 5431 5427 5423 5419 5415 5410 5404 5398 5392 5385 5378 5371 5365 5358 5350 5343 5335 5327 5319 5312 5306
5453 5453 5453 5453 5452 5451 5450 5449 5448 5446 5445 5443 5441 5440 5440 5439 5438 5438 5438 5438 5439 5438 5438 5438 5438 5436 5435 5434 5432 5429 5427 5424 5420 5416 5412 5408 5403 5397 5392 5386 5381 5374 5368 5361 5354 5347 5341 5334 5327 5320 5314 5307 5301 5295
5452 5452 5452 5451 5450 5449 5448 5447 5446 5444 5443 5442 5440 5439 5438 5437 5436 5435 5434 5433 5433 5432 5431 5430 5429 5427 5424 5422 5419 5416 5413 5409 5405 5401 5396 5391 5385 5380 5374 5368 5361 5355 5349 5342 5336 5331 5325 5319 5313 5307 5301 5296 5290 5284
5450 5450 5449 5448 5447 5446 5445 5443 5442 5440 5438 5437 5436 5435 5434 5432 5431 5430 5428 5427 5425 5424 5422 5420 5417 5415 5412 5409 5406 5402 5398 5394 5390 5385 5379 5373 5367 5361 5355 5349 5343 5338 5332 5326 5320 5314 5308 5303 5299 5294 5290 5285 5279 5274
5447 5446 5444 5443 5441 5440 5439 5437 5436 5434 5433 5431 5429 5428 5426 5424 5423 5421 5419 5417 5415 5413 5411 5408 5405 5402 5399 5395 5392 5387 5383 5378 5373 5367 5361 5355 5350 5344 5338 5333 5327 5322 5316 5310 5305 5300 5295 5291 5287 5282 5278 5273 5268 5263
5442 5440 5438 5437 5435 5433 5431 5429 5427 5425 5423 5421 5419 5418 5416 5414 5412 5410 5407 5406 5403 5401 5399 5396 5393 5389 5386 5381 5377 5372 5366 5361 5355 5349 5343 5338 5332 5327 5322 5316 5311 5306 5301 5296 5292 5288 5284 5280 5276 5272 5268 5263 5259 5255
5434 5432 5430 5428 5426 5424 5422 5420 5417 5415 5413 5411 5409 5406 5404 5402 5400 5398 5396 5394 5392 5389 5386 5383 5379 5375 5370 5365 5360 5354 5348 5343 5337 5332 5327 5322 5316 5311 5305 5300 5296 5291 5287 5283 5280 5276 5272 5269 5265 5261 5258 5254 5250 5247
Wind_Speed
72 72 70 66 63 60 57 51 44 44 45 39 37 39 39 38 42 46 50 52 51 48 45 41 38 35 32 30 28 25 24 22 22 21 20 20 19 19 19 19 21 24 27 28 31 34 38 39 40 42 44 46 47 46
67 65 62 58 53 48 46 46 27 43 44 40 39 38 34 37 42 42 48 49 52 49 45 41 38 35 33 33 30 29 29 26 25 26 27 27 27 26 25 27 28 29 31 35 35 35 37 42 44 45 45 44 44 45
59 55 53 51 47 40 36 35 27 46 38 36 35 37 34 36 37 40 42 44 48 47 46 42 40 37 36 34 32 31 29 29 30 31 31 31 32 32 33 34 35 35 38 38 38 35 39 42 44 43 44 43 44 44
50 48 44 42 37 34 32 30 38 42 33 34 33 31 31 32 32 30 41 44 42 45 44 42 41 39 37 35 34 33 32 32 33 33 34 35 36 38 38 40 41 36 37 36 37 37 40 40 39 40 41 42 43 44
46 43 39 35 35 34 34 31 36 37 32 29 29 27 30 37 37 42 33 38 38 41 42 40 40 39 38 37 37 36 35 35 35 35 37 38 39 41 42 43 37 28 35 39 39 38 38 38 39 40 41 42 44 46
36 36 34 30 30 29 32 35 32 27 25 28 27 27 34 43 38 35 37 39 38 36 36 38 39 37 36 37 37 37 37 37 37 39 40 42 40 41 43 39 29 31 33 36 39 41 40 41 41 42 44 46 47 48
30 29 28 30 27 27 30 36 30 26 27 26 29 26 27 34 36 36 32 28 29 30 30 32 34 35 35 35 35 35 37 37 39 39 40 38 36 37 37 36 31 31 35 38 40 41 41 43 45 45 47 48 49 49
22 22 21 25 29 32 31 30 31 26 24 32 29 28 27 28 30 31 32 33 32 29 30 30 31 30 31 30 32 33 34 35 35 35 34 32 35 36 37 35 35 35 36 38 40 42 44 46 47 46 46 47 47 49
20 20 22 27 26 33 29 27 26 27 28 26 26 25 24 23 23 24 25 26 28 28 28 26 25 24 27 25 27 28 30 31 33 34 34 35 36 37 35 34 36 38 39 40 40 40 41 42 44 46 47 48 51 54
21 20 19 27 27 34 27 30 30 27 26 27 26 26 26 25 23 22 23 24 24 25 24 23 22 23 24 24 26 28 30 32 33 32 33 35 37 37 37 38 38 39 40 41 41 43 45 47 48 49 51 53 54 56
21 21 22 25 26 32 32 25 31 26 23 24 23 22 23 24 25 24 26 26 26 27 25 23 22 23 23 25 27 31 33 34 37 38 38 39 39 38 39 39 40 40 39 40 42 45 46 48 51 54 57 58 59 60
11 17 25 30 32 29 38 27 29 28 28 28 26 26 26 26 25 29 30 29 29 29 27 26 27 28 29 30 32 33 34 37 39 38 40 42 40 39 39 39 39 40 43 46 48 50 53 55 56 58 59 61 60 58
8 11 13 13 21 40 35 33 36 34 31 35 27 25 29 31 34 36 34 31 30 30 30 30 31 32 32 31 32 33 38 41 39 40 41 38 36 37 40 42 44 47 50 53 56 60 63 63 62 59 56 54 51 48
14 12 11 11 11 22 39 36 37 34 34 35 32 31 33 35 33 30 30 32 33 34 35 37 36 34 33 33 35 35 37 37 39 37 37 39 42 46 49 51 53 56 59 61 62 61 60 58 57 57 56 56 55 53
22 20 20 20 19 20 21 23 25 26 31 32 32 34 34 29 27 28 27 25 26 26 26 26 28 29 30 33 33 34 35 38 38 40 43 46 48 51 53 54 55 57 58 59 59 59 58 56 55 53 51 49 49 51
30 26 24 23 24 22 23 22 23 25 24 24 27 28 25 24 24 23 24 26 27 27 28 28 28 30 32 33 35 36 37 40 42 45 47 48 49 51 53 54 53 51 50 51 52 51 50 49 51 51 53 50 48 49
37 35 34 30 28 27 26 23 23 25 26 28 28 28 28 28 27 26 27 28 29 30 32 33 34 35 38 39 39 40 41 43 45 46 46 44 41 40 41 42 44 46 47 48 49 53 56 51 49 48 48 47 52 56
42 42 40 37 36 35 34 32 31 30 31 32 33 33 34 35 34 33 34 35 36 37 39 40 40 40 41 40 38 38 36 35 33 32 32 35 37 40 42 43 46 48 49 51 49 47 48 49 48 47 49 53 57 62
23 31 38 39 39 38 39 39 37 36 36 36 36 36 37 38 39 39 40 41 42 42 43 41 41 35 31 29 27 27 28 30 33 35 37 40 42 44 45 47 47 47 46 45 45 46 48 50 51 53 56 60 64 69
8 10 12 14 17 20 23 24 27 27 29 30 31 32 34 35 36 37 37 35 32 30 26 25 25 25 26 28 30 33 35 37 39 41 43 45 46 47 47 45 43 43 43 45 47 49 51 53 56 59 63 68 72 76
11 10 10 11 12 13 15 15 16 18 19 21 22 23 23 23 24 24 24 25 25 25 26 27 28 30 33 35 37 39 41 42 44 46 47 48 48 46 43 41 41 43 46 49 52 53 56 58 60 64 69 74 79 82
11 12 12 12 13 14 14 16 17 18 19 20 21 22 23 25 26 27 28 29 30 32 33 35 36 38 39 40 41 43 45 46 47 48 49 48 44 42 41 43 45 47 49 52 55 59 60 62 65 71 76 80 85 84
17 17 17 17 18 18 19 19 20 21 23 24 25 27 28 30 32 33 34 34 36 38 39 40 41 43 44 45 46 47 47 47 48 47 45 43 43 44 45 45 47 50 54 58 59 61 63 67 73 78 82 86 81 75
22 23 24 25 25 26 26 28 29 30 31 32 33 34 34 35 37 38 38 39 41 43 45 46 48 48 49 48 48 47 47 46 44 43 43 43 42 43 45 48 52 55 57 60 62 66 70 75 80 84 83 77 75 74
27 27 28 30 31 32 34 35 37 38 39 40 41 43 44 46 47 47 48 49 50 52 52 52 50 49 48 47 46 44 42 41 41 41 41 42 44 47 51 54 55 58 60 63 68 73 77 80 81 77 76 73 69 68
29 30 32 34 36 38 40 42 43 45 47 49 51 52 53 54 55 56 55 54 54 52 49 46 43 41 39 38 37 36 37 38 39 41 44 47 50 52 53 55 58 62 66 70 73 76 76 74 73 69 66 65 63 58
29 30 26 29 25 25 25 28 30 33 33 35 37 39 42 42 40 35 37 36 34 31 31 28 28 31 31 32 34 36 39 41 44 46 48 50 52 55 58 62 66 69 72 73 72 70 68 64 61 60 60 57 51 50
3 2 3 5 7 9 9 11 11 10 11 9 9 8 10 11 12 13 14 16 19 20 23 27 29 31 34 37 38 39 42 44 46 48 52 55 59 62 65 67 68 67 68 67 64 61 59 57 56 55 51 46 46 48
4 5 6 9 9 10 11 10 9 9 9 9 9 10 11 12 14 16 18 20 21 24 28 31 32 33 35 37 39 42 45 48 52 55 58 60 62 62 63 64 64 63 61 59 58 56 55 54 51 47 42 42 45 44
10 11 12 14 16 16 15 14 15 15 16 17 18 19 20 20 21 22 23 25 26 27 29 31 34 37 39 42 44 46 48 50 53 55 57 59 60 60 60 59 58 57 57 57 56 54 51 48 44 41 40 42 43 40
15 17 18 20 21 21 22 24 24 25 26 27 28 28 28 29 29 30 31 32 34 35 36 36 37 37 38 40 43 47 51 54 56 57 58 57 57 56 56 55 56 56 55 53 50 47 44 41 39 39 40 41 40 38
21 23 25 27 28 28 29 29 29 30 32 33 34 35 35 36 35 36 35 35 34 35 35 37 38 40 43 47 51 55 58 59 58 56 54 53 53 54 55 55 54 51 48 45 42 40 38 37 38 39 39 38 36 35
28 29 28 27 27 27 28 30 31 31 31 31 30 31 31 31 30 31 32 33 34 36 39 43 46 49 53 56 58 59 58 55 53 52 51 52 53 53 51 48 46 44 42 41 40 38 37 37 38 37 36 35 34 33
Wind_Direction
133 135 135 139 145 149 154 156 158 167 169 171 176 183 178 189 190 192 191 194 194 196 199 200 205 212 217 222 228 235 244 253 260 267 273 280 281 282 284 283 279 280 281 281 282 286 290 291 290 287 288 288 290 292
132 136 139 141 143 147 155 162 153 172 165 172 178 180 184 190 191 189 191 196 198 200 203 204 208 214 220 227 232 239 246 254 262 269 272 274 281 283 285 284 283 283 284 284 288 290 287 286 286 287 289 290 291 292
134 137 140 142 147 150 148 155 175 161 163 168 180 181 186 187 188 188 188 198 201 203 207 210 213 218 224 230 236 243 250 258 261 265 270 276 279 282 285 286 287 289 291 292 290 286 284 284 288 291 292 294 293 294
141 144 141 143 143 146 152 154 166 157 160 167 175 176 179 180 182 181 192 197 205 206 209 213 218 223 228 234 240 244 250 257 262 267 271 274 278 282 285 287 289 293 290 286 284 283 285 289 291 291 291 292 292 292
143 144 145 147 148 149 151 155 160 164 164 170 173 171 171 164 166 176 188 202 211 210 212 216 222 227 232 238 244 250 254 258 263 268 272 275 279 283 284 286 289 288 283 285 288 289 290 290 288 287 289 290 290 292
138 141 142 146 146 149 154 157 155 157 161 165 156 168 171 177 171 171 191 201 208 213 215 221 225 230 235 241 247 251 256 261 265 269 274 277 281 281 282 284 285 283 284 285 287 288 290 291 292 294 294 294 294 294
141 142 142 146 149 154 156 157 156 166 151 147 153 158 168 181 191 199 201 204 205 210 216 222 228 233 238 243 249 254 258 262 265 268 272 276 276 277 280 283 288 286 285 284 286 288 289 291 291 291 293 295 298 298
150 150 147 151 157 155 166 166 169 168 165 163 162 163 169 177 187 198 208 216 221 227 231 233 236 238 243 245 248 253 258 263 266 270 271 273 275 277 279 284 284 283 282 283 285 287 290 292 294 296 298 300 301 301
162 163 162 164 163 164 174 178 177 176 177 179 176 179 184 189 195 200 203 208 215 223 227 230 232 234 240 244 250 253 257 260 264 267 271 272 274 278 282 283 283 284 285 286 287 289 293 296 298 298 298 300 300 300
161 165 169 167 172 174 172 193 192 186 189 190 190 191 193 195 197 204 209 213 218 223 227 229 233 239 245 250 256 262 263 265 269 270 273 275 279 281 283 284 286 290 291 292 291 293 295 296 296 295 294 294 294 293
184 188 188 185 186 188 180 193 194 196 196 201 199 200 205 209 215 218 222 226 232 235 239 244 250 256 260 262 264 265 269 272 274 275 276 279 279 280 282 286 289 289 289 290 290 291 291 291 292 292 293 294 295 294
154 180 192 204 202 197 191 193 207 214 208 208 206 211 216 223 228 234 236 237 243 247 253 259 264 265 265 265 266 268 270 272 275 280 279 280 284 289 289 287 287 287 287 289 291 292 292 292 292 293 293 295 297 301
191 164 153 173 201 188 191 191 190 196 207 221 218 222 232 235 238 241 245 254 262 266 266 263 263 264 264 265 268 272 275 279 281 282 285 292 293 291 289 290 290 290 290 290 291 291 293 297 301 303 303 303 300 292
203 202 206 209 200 198 208 207 207 208 206 213 224 235 241 244 250 258 260 262 261 262 263 262 259 262 267 268 272 276 275 277 280 284 287 286 286 288 290 292 292 292 293 295 297 300 300 299 300 300 299 297 294 290
203 199 205 208 209 207 215 221 220 226 237 232 237 243 248 253 255 258 258 256 258 259 260 260 261 262 262 266 268 271 274 277 283 285 286 287 287 287 288 290 292 294 295 297 299 301 303 303 300 298 295 293 295 302
205 213 213 210 209 209 211 214 213 211 212 223 232 238 239 242 249 253 254 256 259 262 263 265 266 265 266 268 272 273 276 279 281 282 283 284 285 288 291 295 298 300 303 303 303 301 298 294 293 298 301 304 307 311
212 212 217 225 226 229 229 224 224 226 227 229 234 243 250 251 255 260 262 262 263 265 268 271 272 273 275 276 278 279 280 282 284 286 288 291 294 297 300 301 301 300 297 295 291 290 294 299 300 302 305 307 312 315
216 223 227 228 230 234 238 237 237 238 238 240 246 251 251 255 260 263 264 265 265 267 268 269 272 273 275 278 281 282 281 281 280 281 285 291 295 297 299 300 298 295 293 292 293 294 295 299 302 305 306 308 311 312
218 220 222 226 229 232 233 233 238 240 241 241 242 245 248 250 253 256 258 260 263 266 268 271 273 275 274 274 273 273 276 279 284 289 293 295 296 297 297 297 295 292 290 291 292 295 298 300 300 301 304 307 308 310
222 224 223 225 230 233 233 234 238 240 242 244 245 247 250 252 255 257 260 261 262 261 260 259 261 265 268 272 276 280 283 286 289 291 293 294 295 296 296 295 292 290 289 290 293 297 299 300 301 304 306 309 310 311
219 221 219 221 224 226 230 232 235 236 236 238 239 241 242 243 242 242 243 247 250 255 260 265 269 273 276 279 282 285 287 289 291 292 293 293 294 295 293 292 290 289 290 292 294 297 300 301 302 305 306 308 309 311
230 232 238 245 246 248 244 246 246 247 247 248 248 249 250 251 253 255 257 260 263 267 269 273 275 277 280 282 284 285 287 289 290 291 291 292 293 293 292 291 292 292 292 294 296 299 301 301 301 303 305 308 310 312
258 258 257 258 258 259 261 264 265 265 265 265 264 264 265 265 265 266 267 269 271 273 275 276 277 279 280 282 283 285 286 287 288 289 290 290 290 290 291 291 292 293 295 297 298 298 299 299 301 304 307 309 311 311
260 261 263 265 267 268 268 270 270 270 269 270 270 270 270 270 271 272 273 273 275 276 277 279 280 280 281 281 282 283 284 285 285 285 287 288 288 289 290 291 293 295 296 296 296 297 298 301 303 306 309 310 311 312
265 267 269 269 269 270 271 272 274 275 275 275 274 272 271 270 270 270 271 272 273 274 275 276 276 277 277 278 278 280 281 282 283 284 284 286 287 289 291 292 293 293 294 295 297 300 303 305 307 309 310 310 310 310
276 277 277 278 278 278 277 276 276 276 276 276 275 274 273 272 272 271 270 270 271 272 272 272 273 275 275 276 279 282 283 283 283 284 284 286 289 291 291 292 293 294 295 298 301 303 305 307 308 309 308 309 311 312
284 285 285 283 285 288 290 288 288 285 281 275 274 273 273 273 274 271 270 271 271 268 265 262 269 273 272 275 279 281 282 282 283 286 287 288 289 291 292 295 297 299 301 302 303 305 305 306 307 307 309 310 311 313
288 31 344 327 331 337 333 340 345 351 348 347 338 324 320 314 288 283 285 283 285 279 265 266 271 277 277 277 278 281 283 284 286 288 290 292 294 296 297 298 299 300 300 302 303 304 306 307 307 308 309 309 312 315
263 276 304 312 308 305 297 295 305 311 309 314 319 311 305 302 296 291 286 281 278 275 272 272 272 274 276 280 284 288 290 292 293 294 295 296 297 297 298 298 300 302 303 304 305 307 307 307 308 308 308 310 314 317
284 288 294 296 299 296 291 289 293 297 303 305 302 298 292 286 282 279 279 280 282 284 286 288 290 291 292 292 293 294 295 296 297 298 299 299 298 299 300 301 302 304 304 305 306 306 307 307 307 307 309 312 315 316
294 298 300 301 301 299 297 297 296 294 293 292 291 290 290 290 290 291 290 289 290 291 291 291 290 290 291 293 296 300 302 303 303 302 300 300 300 300 300 302 303 303 304 304 305 305 306 306 306 308 311 313 315 315
294 294 294 294 294 294 294 293 292 290 288 287 286 286 285 285 285 286 287 288 287 286 286 287 288 290 292 295 299 301 302 303 302 301 301 300 300 301 302 302 302 303 303 304 305 305 306 306 307 309 311 312 313 314
294 296 297 298 298 298 296 296 295 292 289 288 289 289 287 285 284 282 282 283 284 286 288 290 292 293 296 298 300 301 301 301 301 300 300 301 302 302 303 304 304 305 305 305 305 305 304 305 306 308 309 310 310 311